Regional Weather Roundup
Issued by NWS

Home | Current Version | Previous Version | Graphics & Text | Print | Product List | Glossary On
Versions: 1 2 3 4 5 6 7 8 9 10 11 12 13 14 15 16 17 18 19 20 21 22 23 24 25 26 27
000
ASUS45 KTFX 201910
RWRMT
MONTANA REGIONAL WEATHER ROUNDUP
NATIONAL WEATHER SERVICE GREAT FALLS MT
1200 PM MST FRI JAN 20 2017

NOTE: "FAIR" INDICATES FEW OR NO CLOUDS BELOW 12000 FEET WITH NO
SIGNIFICANT WEATHER AND/OR OBSTRUCTIONS TO VISIBILITY.

MTZ001>007-043-202000-
WEST OF THE DIVIDE

CITY           SKY/WX    TMP DP  RH WIND       PRES   REMARKS
KALISPELL      CLOUDY    32  29  88 SW3       29.40F
MISSOULA       CLOUDY    32  30  92 S5        29.42F
BUTTE          SUNNY     20  17  88 E3        29.40F
MULLAN PASS    PTSUNNY   30  24  78 SE7       29.29F HAZE    WCI  23
ANACONDA         N/A     34  19  55 SE12      29.39F WCI  25
DEER LODGE       N/A     27  25  93 NW3       29.43F
EUREKA           N/A     36  30  80 CALM      29.40F
HAMILTON         N/A     25  25 100 CALM      29.41F VSB 1/4
PLAINS           N/A     30  26  85 CALM      29.44F VSB 0
RONAN            N/A     33  29  86 CALM      29.47F
THOMPSON FALLS   N/A     34  30  85 E10       29.46  WCI  26
$$

MTZ008-052>055-202000-
SOUTHWEST MONTANA

CITY           SKY/WX    TMP DP  RH WIND       PRES   REMARKS
BOZEMAN        SUNNY     27  21  78 CALM      29.44F
DILLON         PTSUNNY   44  18  35 CALM      29.43F
W YELLOWSTONE  CLOUDY    25  19  80 S9        29.47F WCI  15
ENNIS          CLOUDY    32  19  59 S16       29.47F WCI  21
TWIN BRIDGES     N/A     28  15  58 CALM      29.50F
$$

MTZ009-010-012-014-046-048-049-054-202000-
EAST SLOPES AND CENTRAL MONTANA

CITY           SKY/WX    TMP DP  RH WIND       PRES   REMARKS
CUT BANK       SUNNY     37  22  54 SE5       29.36F
GREAT FALLS    SUNNY     40  26  57 SW13      29.40F
MALMSTROM AFB  SUNNY     39  27  62 SW13      29.41F WCI  32
HELENA         SUNNY     26  20  77 CALM      29.42F HAZE
AUGUSTA          N/A     35  22  58 S8        29.37F WCI  28
BOWMANS CRNR     N/A     32  26  80 S12       29.37F WCI  23
CHOTEAU          N/A     39  21  48 SW8       29.39F
CONRAD           N/A     36  25  65 SW2       29.46F
POWER            N/A     35  24  65 SW6       29.38F WCI  30
RAYNESFORD       N/A     41  22  46 SW10      29.39F
ULM              N/A     38  28  66 MISG      29.40F
$$

MTZ011-013-016-021-045-047-050-051-202000-
NORTH CENTRAL MONTANA

CITY           SKY/WX    TMP DP  RH WIND       PRES   REMARKS
HAVRE          SUNNY     37  29  72 SW8       29.40F WCI  31
LEWISTOWN      CLOUDY    37  27  67 CALM      29.40F
CHINOOK          N/A     41  28  60 W7        29.40F
DENTON           N/A     36  29  75 S8        29.37F WCI  30
FORT BENTON      N/A     43  25  49 MISG      29.42F
GEYSER           N/A     41  22  47 W14       29.38F
GRASS RANGE      N/A     41  25  52 NW10      29.37F
JUDITH GAP       N/A     35  25  65 CALM      29.38F
ROY              N/A     42  26  52 MISG      29.38F
STANFORD         N/A     39  22  49 CALM      29.38F
WINIFRED         N/A     40  27  58 W10       29.39F
$$

MTZ017>020-022>027-061-062-202000-
NORTHEAST MONTANA

CITY           SKY/WX    TMP DP  RH WIND       PRES   REMARKS
GLASGOW        CLOUDY    34  28  79 W12       29.38F WCI  25
JORDAN           N/A     39  33  79 W5        29.39F
SIDNEY         MOSUNNY   29  22  75 S6        29.38F WCI  23
WOLF POINT     CLOUDY    32  28  85 W10       29.38F WCI  24
PLENTYWOOD       N/A     28  25  86 W7        29.34F WCI  21
POPLAR           N/A     25  21  86 SW3       29.38F
SCOBEY           N/A     28  22  78 S2        29.38F
$$

MTZ028>42-056>058-202000-
SOUTHCENTRAL AND SOUTHEAST MONTANA

CITY           SKY/WX    TMP DP  RH WIND       PRES   REMARKS
BAKER          CLOUDY    28  26  92 W3        29.38F
BILLINGS       PTSUNNY   38  29  70 SW9       29.42F WCI  31
LIVINGSTON     SUNNY     42  18  37 SW25      29.40F
MILES CITY     CLOUDY    35  32  88 SW10      29.40F WCI  27
BIG TIMBER     SUNNY     41  19  42 W16       29.43F
EKALAKA          N/A     32  29  89 W12       29.41F VSB 0   WCI  23
FORSYTH          N/A     37  37 100 W5        29.41F
HARLOWTON        N/A     40  24  52 W18       29.39F
LAUREL           N/A     35  24  64 SW5       29.46F
$$

REGIONAL REPORTS...DAKOTAS

CITY           SKY/WX    TMP DP  RH WIND       PRES   REMARKS
WILLISTON      CLOUDY    30  22  72 CALM      29.37F
MINOT          CLOUDY    27  21  78 S8        29.36F WCI  19
DICKINSON      CLOUDY    32  25  75 N7        29.32F WCI  26
BEACH            N/A     32  28  86 W12       29.38F WCI  23
CROSBY           N/A     25  21  86 S5        29.36F
TIOGA            N/A     25  25 100 W12       29.34F WCI  14
WATFORD CITY     N/A     27  23  86 SW7       29.36F WCI  19
BISMARCK       CLOUDY    29  27  92 NW3       29.37F FOG
GRAND FORKS    FOG       36  33  89 SE10      29.47F VSB 3/4 WCI  28
FARGO          CLOUDY    38  35  89 SE10      29.48F FOG     WCI  31
BUFFALO SD       N/A     37  31  78 NW24      29.26F WCI  26
RAPID CITY     SUNNY     41  31  67 NW17      29.32F
$$

REGIONAL REPORTS...WYOMING/IDAHO/WASHINGTON

CITY           SKY/WX    TMP DP  RH WIND       PRES   REMARKS
GILLETTE       CLOUDY    33  32  96 W7        29.40F WCI  27
SHERIDAN       CLOUDY    36  32  85 SW7       29.43F WCI  30
BUFFALO WY     CLOUDY    35  30  82 N10       29.42F WCI  27
CODY           SUNNY     35  19  52 N3        29.43F
YELLOWSTONE LA   N/A     23  19  85 VRB3      29.45F
IDAHO FALLS    MOSUNNY   27  25  92 NW7       29.50F WCI  19
SALMON         CLOUDY    27  21  80 CALM      29.45F
BOISE          CLOUDY    40  27  59 SE16      29.34F
SPOKANE        MOSUNNY   37  31  78 NE7       29.32F WCI  32
$$

REGIONAL REPORTS...ALBERTA

CITY           SKY/WX    TMP DP  RH WIND       PRES   REMARKS
EDMONTON       MOSUNNY   36  16  44 S6        29.31S WCI  31
CALGARY        MOSUNNY   39  14  35 W5        29.30F
LETHBRIDGE     MOSUNNY   41  23  48 W17       29.34F
MEDICINE HAT   MOSUNNY   39  27  60 SW8       29.34F
WATERTON GATE    N/A     39  18  41 SW15G22     N/A  WCI  31
CARDSTON         N/A     43  18  36 W6          N/A
MILK RIVER       N/A     39  23  52 NW5         N/A
$$

REGIONAL REPORTS...SASKATCHEWAN

CITY           SKY/WX    TMP DP  RH WIND       PRES   REMARKS
SWIFT CURRENT  CLOUDY    37  27  65 W16       29.30F WCI  28
REGINA         PTSUNNY   27  23  86 SW3       29.32F
SASKATOON      CLOUDY    32  28  86 W6        29.32S WCI  26
VAL MARIE        N/A     37  28  70 W9          N/A  WCI  31
ROCKGLEN         N/A     37  27  65 W6          N/A
ASSINIBOIA       N/A     27  19  74 S5          N/A
$$




USA.gov is the U.S. government's official web portal to all federal, state and local government web resources and services.